This is the latest recevied weather packets stored in our database for station/object GCEMA. If no packets are shown the sender has not sent any weather packets the latest 10 day(s).
| Time | Temp. | Humidity | Pressure | Rain* | Wind** | Luminosity | Snow |
|---|---|---|---|---|---|---|---|
| 1778031441 | 12.78° C | - | 1005.7 hPa | 0 mm | 0 m/s | - | - |
| 1778031261 | 12.22° C | - | 1005.5 hPa | 0 mm | 0 m/s | - | - |
| 1778031079 | 12.22° C | - | 1005.7 hPa | 0 mm | 0 m/s | - | - |
| 1778030900 | 12.78° C | - | 1005.3 hPa | 0 mm | 0 m/s | - | - |
| 1778030720 | 12.78° C | - | 1006.1 hPa | 0 mm | 0 m/s | - | - |
| 1778030541 | 11.67° C | - | 1005.9 hPa | 0 mm | 0 m/s | - | - |
| 1778030361 | 12.78° C | - | 1005.2 hPa | 0 mm | 0 m/s | - | - |
| 1778030179 | 11.67° C | - | 1005 hPa | 0 mm | 0 m/s | - | - |
| 1778030000 | 12.22° C | - | 1004.9 hPa | 0 mm | 0 m/s | - | - |
| 1778029820 | 12.78° C | - | 1004.9 hPa | 0 mm | 0 m/s | - | - |
| 1778029640 | 11.67° C | - | 1004.8 hPa | 0 mm | 0 m/s | - | - |
| 1778029461 | 12.22° C | - | 1004.9 hPa | 0 mm | 0 m/s | - | - |
| 1778029279 | 11.67° C | - | 1005.1 hPa | 0 mm | 0 m/s | - | - |
| 1778029099 | 12.22° C | - | 1005.2 hPa | 0 mm | 0 m/s | - | - |
| 1778028920 | 12.78° C | - | 1005.1 hPa | 0 mm | 0 m/s | - | - |
| 1778028740 | 12.78° C | - | 1005 hPa | 0 mm | 0 m/s | - | - |
| 1778028561 | 11.67° C | - | 1004.9 hPa | 0 mm | 0 m/s | - | - |
| 1778028379 | 11.67° C | - | 1005 hPa | 0 mm | 0 m/s | - | - |
| 1778028200 | 11.67° C | - | 1005 hPa | 0 mm | 0 m/s | - | - |
| 1778028020 | 11.11° C | - | 1005.3 hPa | 0 mm | 0 m/s | - | - |
| 1778027840 | 11.67° C | - | 1005.1 hPa | 0 mm | 0 m/s | - | - |
| 1778027660 | 11.67° C | - | 1005 hPa | 0 mm | 0 m/s | - | - |
| 1778027478 | 11.67° C | - | 1005.2 hPa | 0 mm | 0 m/s | - | - |
| 1778027299 | 11.11° C | - | 1005.2 hPa | 0 mm | 0 m/s | - | - |
| 1778027119 | 11.67° C | - | 1005.1 hPa | 0 mm | 0 m/s | - | - |
* Rain latest hour (hover to see other rain measurements)
** Current wind speed in m/s (hover to see current wind gust speed)